Flag for Spain Weather past 2 weeks in Granada, Spain

61 °F

Passing clouds.

Feels Like: 61 °F
Forecast: 51 / 76 °F
Wind: 1 mph from North

Location: Granada / Aeropuerto

Current Time: Oct 14, 2015 at 1:46:20 AM

Latest Report: Oct 13, 2015 at 11:00 PM

Visibility: N/A

Pressure: 29.98 "Hg (27.61 "Hg at 698m altitude)

Humidity: 88%

Dew point: 57 °F

Location of GranadaLocation

Historic Weather in Granada — Graph


Granada temperature yesterday

Maximum temperature yesterday: 75 °F (at 3:30 PM)
Minimum temperature yesterday: 50 °F (at 7:30 AM)
Average temperature yesterday: 64 °F

Past Weeks' High & Low Weather Summary

High84 °F (Oct 4, 3:30 PM)100% (Sep 30, 6:30 AM)30.27 "Hg (Sep 30, 6:30 AM)
Low48 °F (Oct 10, 7:00 AM)21% (Oct 3, 3:30 PM)29.83 "Hg (Oct 10, 4:00 PM)
Average67 °F66%30.04 "Hg
* Reported Sep 28 11:00 PM — Oct 13 11:00 PM, Granada, Weather by CustomWeather, © 2015

Note: Actual official high and low records may vary slightly from our data, if they occured in-between our weather recording intervals... More about our weather records


Granada weather history for previous 24 hours

Time TempWeatherWind HumidityBarometerVisibility
11:00 PM
Tue, Oct 13
61 °FPassing clouds.1 mph88%29.98 "HgN/A
10:30 PM61 °FPassing clouds.1 mph94%29.98 "HgN/A
10:00 PM61 °FPassing clouds.No wind94%29.98 "HgN/A
9:30 PM61 °FPassing clouds.2 mph94%29.98 "HgN/A
9:00 PM61 °FPassing clouds.3 mph94%29.95 "HgN/A
8:30 PM61 °FPartly sunny.3 mph94%29.95 "HgN/A
8:00 PM61 °FLight rain. Broken clouds.2 mph94%29.95 "HgN/A
7:30 PM63 °FLight rain. Broken clouds.12 mph88%29.95 "HgN/A
7:00 PM63 °FLight rain. Broken clouds.15 mph88%29.92 "HgN/A
6:30 PM68 °FBroken clouds.13 mph60%29.92 "HgN/A
6:00 PM72 °FPassing clouds.9 mph53%29.92 "HgN/A
5:30 PM73 °FPassing clouds.7 mph47%29.89 "HgN/A
5:00 PM73 °FPassing clouds.6 mph47%29.89 "HgN/A
4:30 PM73 °FPassing clouds.8 mph47%29.92 "HgN/A
4:00 PM73 °FPassing clouds.9 mph50%29.92 "HgN/A
3:30 PM75 °FPassing clouds.8 mph44%29.92 "HgN/A
3:00 PM73 °FPassing clouds.3 mph47%29.92 "HgN/A
2:30 PM72 °FScattered clouds.3 mph50%29.95 "HgN/A
2:00 PM72 °FScattered clouds.1 mph53%29.95 "HgN/A
1:30 PM72 °FScattered clouds.No wind53%29.95 "HgN/A
1:00 PM70 °FScattered clouds.2 mph60%29.95 "HgN/A
12:30 PM68 °FPassing clouds.1 mph64%29.98 "HgN/A
12:00 PM68 °FPassing clouds.No wind69%29.98 "HgN/A
11:30 AM63 °FPassing clouds.No wind83%29.98 "HgN/A
11:00 AM61 °FScattered clouds.No wind88%29.98 "HgN/A
10:30 AM57 °FScattered clouds.No wind88%29.98 "HgN/A
10:00 AM57 °FPassing clouds.No wind88%29.98 "HgN/A
9:30 AM55 °FScattered clouds.No wind94%29.95 "HgN/A
9:00 AM50 °FPassing clouds.1 mph100%29.95 "HgN/A
8:30 AM50 °FPassing clouds.No wind100%29.95 "HgN/A
8:00 AM50 °FPassing clouds.No wind100%29.95 "HgN/A
7:30 AM50 °FPassing clouds.No wind100%29.95 "HgN/A
7:00 AM52 °FPassing clouds.1 mph94%29.95 "HgN/A
Weather by CustomWeather, © 2015

See weather overviewHow to use our weather pages